Location: New Plymouth
(39.0670°S, 174.0830°E)
Time: 02:54:01
(UTC+13:00)

Cosmos 1633 - Pass Details

Date: 24 January 2019
Orbit: 464 x 484 km, 82.5° (Epoch: 13 October)

Event Time Altitude Azimuth Distance (km) Brightness Sun altitude
Rises 23:01:36 0° 193° (SSW) 2,545 7.3 -21.5°
Reaches altitude 10° 23:03:44 10° 198° (SSW) 1,661 6.3 -21.7°
Maximum altitude 23:07:15 50° 274° (W) 620 3.2 -22.2°
Enters shadow 23:07:36 48° 295° (WNW) 637 3.1 -22.2°
